sat.trackr.live / text

‹ back to catalog

HULIANWANG DIGUI-77

NORAD 65309 · 2025-187E

PAYLOAD ACTIVE UNKNOWN

§ Identity

Operator
Country
PRC
Launch date
2025-08-25
Launch site
WSC
Launch vehicle
Mass (kg)
RCS (m²)

External: N2YO · Heavens-Above · Gunter

§ Orbital elements

Epoch: 2026-05-25T03:34:45.071328Z

Period
108.33 min
Inclination
50.0051°
Eccentricity
0.0000667
Mean motion
13.29322816 rev/d
Perigee alt
1,148.8 km
Apogee alt
1,149.8 km
Semi-major
7,527.5 km
B*
7.7851e-5
RAAN
288.6337°
Arg perigee
80.5881°
Mean anomaly
279.5066°
Rev number
3,663

§ Raw data

HULIANWANG DIGUI-771 65309U 25187E   26145.14913277 -.00000088  00000+0  77851-4 0  99962 65309  50.0051 288.6337 0000667  80.5881 279.5066 13.29322816 36632

JSON: /api/v1/satellites/65309 · /tle

For live sub-satellite position, see the globe view (requires WebGL).

§ Visibility from observer

Set your observer location to see the next 7 days of passes ≥ 10°. The values pass through the URL so the page stays shareable.

No JS? Fill the form by hand. The geolocation button needs JavaScript.